RH
23 36 48 58 49 37 39 71 92 100 92 94 90 88 81 72 65 59 71 64 49 38 36 31 28 28 28 27 28 30 30 30 31 31 31 33 32 32 29 27 24 22 20 17
24 38 42 53 52 38 36 67 82 94 92 92 94 96 87 77 61 59 80 61 40 35 34 33 31 30 29 31 32 33 35 36 36 35 36 38 38 34 30 28 25 23 20 19
23 39 46 49 52 39 36 50 74 83 69 75 91 99 99 93 75 67 71 58 47 45 39 38 39 39 38 38 38 39 40 40 40 42 45 41 35 34 31 28 25 24 22 22
22 34 43 44 51 44 36 41 61 77 70 64 62 75 85 97 93 72 59 49 41 38 39 41 42 42 41 40 41 40 42 45 46 43 40 36 35 35 31 27 28 25 25 26
21 30 44 39 46 47 40 42 49 59 64 61 56 57 66 75 73 63 53 45 41 40 42 44 43 42 42 41 40 42 45 47 44 43 41 41 44 35 31 32 27 28 32 31
20 23 36 40 42 48 45 42 45 50 55 57 56 55 58 62 61 61 59 53 50 48 50 48 46 44 42 42 42 44 48 49 46 41 43 44 37 35 37 32 34 38 39 36
19 19 28 40 43 47 48 46 44 45 51 57 59 60 68 67 56 51 50 52 54 54 53 50 46 43 43 41 44 51 48 42 46 52 46 45 45 42 40 43 44 53 51 56
20 21 21 35 39 44 45 47 48 47 48 50 51 51 56 58 56 52 49 45 45 45 45 45 45 43 43 50 50 47 49 52 60 53 52 48 43 48 60 64 60 59 55 52
18 21 21 30 41 42 42 38 44 49 49 50 50 51 52 54 55 53 52 51 49 47 48 48 47 52 55 55 54 53 70 66 57 55 54 74 74 75 82 87 92 90 87 82
20 21 21 24 31 43 45 44 40 41 48 51 52 52 50 53 56 55 53 52 54 56 56 61 60 58 59 58 68 72 67 63 61 88 95 84 85 90 88 79 71 67 63 59
23 21 23 25 29 42 56 53 48 46 49 53 50 51 52 51 52 55 59 68 72 70 65 60 58 64 63 69 62 71 81 87 89 74 68 58 54 54 57 54 54 56 54 52
27 26 26 30 34 34 38 48 57 59 61 64 65 64 76 73 72 72 72 71 66 63 64 69 66 66 62 74 88 77 77 69 64 52 45 41 30 30 31 36 41 38 40 42
35 32 31 31 32 34 37 40 39 44 50 61 68 76 74 69 66 71 74 74 71 72 74 66 61 80 90 78 74 69 62 60 58 42 41 40 35 38 54 51 64 56 56 63
43 41 39 35 33 34 35 38 40 43 49 56 67 66 64 71 78 75 69 64 66 69 73 94 91 85 75 62 56 50 40 40 34 31 30 48 65 76 93 91 75 54 52 63
49 46 45 45 44 42 42 43 45 48 54 60 63 57 58 61 67 73 86 93 96 91 86 78 73 60 54 50 34 31 34 33 33 38 39 45 57 67 62 62 59 65 63 78
75 79 69 60 54 53 58 61 68 76 70 82 94 99 79 82 82 78 73 63 53 43 46 47 36 28 26 25 27 26 27 30 26 28 31 38 45 46 63 75 72 88 100 78
43 48 48 50 59 55 63 55 63 64 64 66 66 63 61 57 54 50 47 42 38 32 27 27 27 25 23 24 26 26 25 25 27 31 35 42 52 74 81 94 99 86 77 81
26 24 24 29 30 30 34 37 38 38 40 39 37 34 30 28 27 27 26 25 24 24 25 24 25 27 31 34 32 30 29 30 31 34 38 45 63 82 92 94 85 76 72 64
30 33 42 41 42 41 47 54 49 43 45 44 34 35 52 50 46 51 52 52 56 54 38 36 39 38 40 42 41 38 30 32 36 36 55 68 82 86 84 91 77 76 60 52
49 51 54 53 43 34 50 62 54 54 61 47 50 60 75 61 51 52 32 25 24 24 28 32 37 39 34 35 44 48 51 44 52 58 68 70 81 79 86 76 65 54 50 41
70 77 77 77 69 66 61 50 48 56 60 56 47 50 55 57 58 50 39 37 41 46 56 66 65 53 42 44 50 57 59 56 56 51 71 92 89 82 58 48 47 39 34 30
66 62 58 51 47 43 42 44 48 42 44 49 52 60 67 71 81 81 82 83 79 68 61 48 53 60 69 66 56 50 53 60 68 80 80 76 52 33 26 22 23 21 18 15
86 90 88 78 57 60 57 58 48 70 69 68 80 68 62 53 59 70 78 80 58 51 54 53 51 54 53 50 58 66 71 72 72 50 33 25 20 19 16 14 13 11 10 9
61 66 63 60 70 80 95 100 100 100 100 100 100 78 66 70 57 52 54 48 41 46 53 57 54 55 72 85 74 63 67 54 28 18 16 14 13 12 11 9 8 7 7 6
96 97 98 87 85 92 71 72 93 100 94 66 66 96 100 98 82 50 51 58 63 61 61 56 56 59 56 57 59 58 37 17 11 9 10 10 8 7 6 6 7 6 5 4
99 89 75 78 88 94 98 94 64 66 100 100 81 55 44 49 63 71 76 78 76 81 71 61 54 53 52 45 31 28 14 9 8 8 7 6 5 5 5 5 5 4 4 3
Wind_Speed
87 85 81 76 72 69 67 63 59 57 55 52 51 49 48 45 46 45 45 44 43 43 45 47 48 50 53 55 58 60 63 66 69 71 75 78 80 83 85 84 80 80 81 78
87 86 83 78 73 71 69 65 60 58 56 53 52 53 48 47 47 47 47 47 48 48 50 52 53 56 58 60 64 66 68 70 72 75 78 80 83 85 84 81 79 80 78 68
85 86 83 79 75 72 69 66 63 60 58 55 54 54 51 51 51 51 51 52 52 53 55 56 58 60 63 66 68 71 73 75 77 79 80 83 85 83 80 77 79 80 71 58
85 85 84 80 75 72 69 67 65 63 61 58 56 55 53 53 55 57 58 58 58 58 59 61 63 65 68 70 73 76 77 78 81 82 84 85 83 78 77 80 80 74 62 51
82 80 82 79 76 72 70 68 68 67 64 60 57 55 57 57 57 60 61 63 63 64 65 66 68 71 73 76 78 80 82 82 83 84 84 83 78 79 81 81 77 62 52 49
83 79 80 80 77 74 71 70 70 68 66 61 61 58 60 61 63 64 66 68 68 69 71 72 74 76 78 81 83 84 84 81 83 84 81 81 83 84 82 78 61 50 47 49
80 76 76 79 78 75 72 71 70 68 66 62 66 64 62 64 65 66 68 70 71 74 76 78 80 82 83 86 87 84 83 85 81 81 84 86 86 82 73 57 52 51 51 52
78 74 70 72 75 74 72 70 69 68 67 66 68 64 64 67 68 69 71 74 76 79 81 84 85 87 88 86 84 83 82 82 84 86 87 84 80 69 59 59 59 58 59 60
76 73 67 67 71 74 73 70 71 69 69 68 67 66 68 70 73 75 77 79 81 83 86 88 89 86 84 82 81 82 83 85 87 83 76 70 69 69 70 68 67 67 67 68
70 69 67 64 63 69 73 74 72 71 70 69 69 70 72 74 77 79 81 83 85 87 87 84 82 81 79 81 84 85 84 81 76 71 72 75 74 74 74 75 74 74 75 76
61 66 65 62 59 59 65 72 73 73 72 73 74 75 77 79 80 81 82 82 82 81 79 77 78 79 83 85 83 76 72 70 67 68 65 66 69 72 75 76 76 77 79 80
48 58 61 60 58 56 57 59 63 67 70 72 73 72 74 74 76 78 78 78 77 77 78 80 83 84 78 72 66 69 67 67 67 68 71 76 74 72 71 74 77 76 76 78
30 43 56 61 61 61 60 59 59 58 60 62 66 66 70 72 72 71 73 75 78 81 83 82 75 66 62 66 67 72 74 74 78 82 87 88 85 83 82 85 90 88 86 89
17 23 32 42 51 56 58 61 62 61 61 61 60 64 67 69 72 75 78 81 80 76 64 60 62 65 68 72 77 80 83 87 89 89 86 87 87 87 91 96 97 97 99 101
14 19 22 27 32 38 45 52 57 62 64 65 69 69 71 68 67 62 57 56 57 59 61 65 68 71 75 79 82 84 87 90 91 91 94 96 93 96 98 101 107 110 109 108
6 7 11 18 23 27 31 35 36 39 43 41 42 45 51 52 54 55 58 60 64 67 71 75 78 81 83 86 87 91 94 97 99 100 100 100 103 106 107 109 113 116 114 113
11 14 16 19 21 23 27 33 35 38 41 45 49 53 57 60 63 66 68 71 74 77 80 83 87 91 94 94 96 100 104 105 107 108 110 111 109 113 116 119 123 126 120 114
19 22 25 27 30 31 36 40 45 48 50 53 57 61 64 67 70 74 78 82 85 88 91 92 94 98 99 102 106 110 110 111 113 112 114 117 117 119 121 124 129 124 117 110
28 29 27 30 34 34 37 43 48 52 55 57 60 64 72 71 73 77 78 79 82 87 91 96 99 101 104 107 109 112 116 118 121 121 119 123 125 126 129 129 126 116 111 110
35 35 38 40 41 43 48 53 56 58 59 64 68 70 74 79 83 87 90 92 95 98 101 104 107 110 113 113 114 116 120 125 125 126 128 131 132 131 134 126 120 115 112 111
44 47 48 48 49 51 55 57 61 65 67 71 75 79 81 83 88 93 96 99 100 102 105 107 111 113 115 117 118 121 122 126 130 131 135 136 134 134 126 119 116 116 113 112
55 55 55 59 61 61 64 67 69 73 75 78 82 86 89 91 93 98 100 102 104 108 112 114 112 115 120 125 126 126 128 132 133 136 137 131 124 119 117 116 114 115 116 116
61 65 66 68 68 71 73 76 80 84 87 90 94 93 98 100 103 104 106 110 114 117 119 120 121 121 124 128 133 134 135 137 136 129 121 117 114 116 116 116 115 116 116 116
70 72 74 76 78 83 84 84 88 91 93 97 99 100 102 104 108 110 114 114 116 120 122 125 127 128 131 137 139 141 140 133 123 119 115 114 114 115 115 115 115 114 114 112
83 86 86 85 89 92 94 93 95 98 100 102 105 108 111 114 115 117 117 121 128 129 130 132 134 135 135 137 137 137 133 124 118 114 114 112 112 112 111 109 107 107 106 104
91 89 92 93 96 100 102 105 109 107 105 108 112 114 116 118 124 126 128 130 133 137 138 138 140 140 138 133 127 128 123 119 115 112 110 108 105 103 100 97 94 97 95 93
Wind_Direction
206 207 208 210 212 214 216 218 222 225 226 231 232 235 237 241 245 248 250 251 255 259 263 268 272 277 281 284 288 291 293 295 298 301 302 303 303 305 307 308 310 312 316 318
205 206 207 209 211 214 216 219 222 225 227 230 233 238 238 241 245 246 251 253 257 262 265 269 273 276 281 285 288 291 294 295 298 299 300 300 302 304 305 307 310 313 317 316
204 206 208 209 211 214 216 219 222 225 227 230 234 239 240 243 246 248 251 255 259 264 268 272 277 281 284 286 289 291 294 295 297 298 299 300 301 302 304 307 311 314 316 311
203 205 207 209 212 214 216 219 223 226 228 233 237 239 243 247 249 252 255 258 262 265 269 274 278 281 283 285 288 290 293 295 296 297 298 299 300 301 305 308 311 314 313 307
204 206 209 211 212 215 218 221 223 227 230 234 239 240 246 248 252 255 259 261 264 267 270 274 278 280 283 286 289 291 292 295 295 296 297 298 300 303 305 309 312 312 305 303
204 206 208 211 214 217 219 223 225 228 232 235 240 241 248 249 253 257 261 263 266 269 272 276 279 281 284 287 290 293 293 293 294 294 297 300 302 304 308 310 309 303 298 298
205 208 211 212 215 218 222 226 229 232 235 238 242 244 248 254 256 259 263 267 270 273 276 278 280 283 286 289 291 291 291 292 294 297 300 301 304 306 308 307 303 301 299 298
208 211 214 216 218 221 224 228 232 236 239 241 245 248 251 256 262 264 268 270 272 274 277 279 282 285 288 289 289 289 292 295 299 300 301 304 305 307 304 304 302 299 298 297
211 213 216 218 221 224 228 232 235 237 241 245 249 253 256 259 263 265 268 270 273 276 278 281 285 287 287 288 290 293 295 296 298 301 303 304 304 303 302 302 301 300 299 298
214 215 218 221 225 228 231 235 239 242 245 249 253 256 259 261 263 267 270 273 275 277 280 283 284 285 287 290 292 294 296 297 298 299 299 300 301 299 299 298 298 298 297 296
216 218 221 225 229 231 234 237 241 245 248 252 254 257 260 262 266 269 272 274 277 280 282 283 284 287 289 291 292 293 296 296 297 299 300 301 300 300 299 298 296 295 294 293
216 220 225 228 231 235 237 240 243 247 250 253 255 259 262 265 267 270 273 275 277 278 281 283 285 288 288 289 288 289 290 289 293 293 295 296 295 297 297 299 299 298 298 297
215 222 227 231 235 239 242 245 249 251 254 256 258 260 264 267 270 271 272 274 276 279 281 284 286 287 286 287 285 288 291 289 290 291 291 291 292 295 297 301 304 304 302 301
210 222 228 233 237 241 245 249 252 255 257 259 262 262 265 268 269 272 273 275 275 280 280 281 283 282 285 288 288 288 290 290 291 292 292 296 296 297 299 300 301 301 300 299
216 227 229 231 233 238 243 247 251 254 257 260 263 266 267 270 271 272 274 273 275 279 279 280 282 281 282 284 287 289 290 292 292 292 294 295 296 297 297 299 301 300 298 298
175 198 225 240 244 248 250 251 254 257 260 260 258 264 266 271 273 276 276 276 276 277 278 280 283 284 285 285 286 288 287 289 291 292 294 295 296 297 298 298 299 301 297 297
268 253 251 252 254 258 265 257 255 258 260 261 265 268 269 270 272 274 276 278 279 280 280 280 280 282 285 287 288 291 292 293 293 294 294 295 295 296 297 298 298 298 298 294
290 285 278 275 273 277 275 276 277 277 278 278 279 280 283 284 285 286 285 284 283 284 285 287 288 288 289 289 291 293 294 295 295 294 294 294 295 295 296 297 297 297 294 291
283 284 288 282 282 284 286 285 286 287 285 284 286 286 292 291 291 291 289 289 288 288 288 288 288 290 292 292 292 292 293 292 292 294 295 296 297 296 298 298 296 293 291 288
288 286 286 283 281 279 285 287 287 285 285 287 287 288 289 289 289 289 289 289 288 289 291 292 292 292 291 291 291 292 292 294 295 295 296 298 300 299 300 297 294 290 289 286
291 288 287 285 285 284 282 283 284 286 286 285 286 285 285 286 287 287 287 287 288 289 289 290 291 291 291 292 292 293 294 294 295 296 299 302 301 300 296 293 291 288 286 285
291 290 287 286 287 290 292 288 288 291 289 288 289 289 287 285 287 288 290 290 290 290 291 293 295 295 296 296 296 296 297 297 299 300 300 299 297 294 291 288 287 286 286 286
290 290 290 289 288 290 292 294 294 293 292 292 296 295 297 293 289 290 291 292 294 294 295 294 296 296 297 298 300 302 300 301 301 299 297 295 293 291 288 287 287 287 287 287
289 289 293 294 296 295 294 293 292 291 292 293 292 292 295 296 297 298 296 295 296 298 297 297 298 299 300 300 302 303 303 302 299 297 295 292 291 289 289 289 289 288 288 289
289 288 291 296 295 296 295 294 295 293 292 293 293 293 294 295 296 298 298 300 301 302 301 300 301 302 302 303 305 304 303 299 296 295 294 292 291 290 289 289 289 288 288 288
286 289 293 294 294 296 294 295 295 293 292 292 294 295 297 298 300 302 302 303 303 304 304 302 303 305 306 305 303 302 299 296 296 295 293 293 293 292 291 290 288 288 287 285